TimeCDT,TemperatureF,Dew PointF,Humidity,Sea Level PressureIn,VisibilityMPH,Wind Direction,Wind SpeedMPH,Gust SpeedMPH,PrecipitationIn,Events,Conditions,WindDirDegrees,DateUTC
12:15 AM,70.5,67.5,90,30.03,5.0,Calm,Calm,-,N/A,,Clear,0,2013-08-01 05:15:00
12:35 AM,69.1,66.4,91,30.03,5.0,Calm,Calm,-,N/A,,Clear,0,2013-08-01 05:35:00
12:55 AM,68.4,66.2,93,30.03,4.0,Calm,Calm,-,N/A,,Clear,0,2013-08-01 05:55:00
1:15 AM,68.0,65.7,92,30.03,2.5,Calm,Calm,-,N/A,,Clear,0,2013-08-01 06:15:00
1:35 AM,67.6,65.7,93,30.03,0.8,Calm,Calm,-,N/A,,Mist,0,2013-08-01 06:35:00
1:55 AM,67.1,65.3,94,30.03,2.0,Calm,Calm,-,N/A,,Clear,0,2013-08-01 06:55:00
2:15 AM,66.7,64.8,93,30.03,1.0,SW,3.5,-,N/A,,Mist,220,2013-08-01 07:15:00
2:35 AM,67.3,65.5,94,30.03,2.0,WSW,3.5,-,N/A,,Clear,240,2013-08-01 07:35:00
2:55 AM,67.1,65.3,94,30.03,1.5,WSW,3.5,-,N/A,,Mostly Cloudy,250,2013-08-01 07:55:00
3:15 AM,67.6,65.8,94,30.03,0.2,Calm,Calm,-,N/A,Fog,Fog,0,2013-08-01 08:15:00
3:35 AM,67.5,65.7,94,30.03,0.2,Calm,Calm,-,N/A,Fog,Fog,0,2013-08-01 08:35:00
3:55 AM,67.5,65.7,94,30.03,0.2,West,3.5,-,N/A,Fog,Fog,260,2013-08-01 08:55:00
4:15 AM,67.1,65.3,94,30.03,0.5,Calm,Calm,-,N/A,Fog,Fog,0,2013-08-01 09:15:00
4:35 AM,67.1,65.3,94,30.03,0.5,Calm,Calm,-,N/A,Fog,Fog,0,2013-08-01 09:35:00
4:55 AM,66.7,64.9,94,30.03,0.5,Calm,Calm,-,N/A,Fog,Fog,0,2013-08-01 09:55:00
5:15 AM,66.2,64.6,94,30.03,0.5,Calm,Calm,-,N/A,Fog,Fog,0,2013-08-01 10:15:00
5:35 AM,65.7,64.0,94,30.03,2.0,Calm,Calm,-,N/A,,Scattered Clouds,0,2013-08-01 10:35:00
5:55 AM,65.3,63.5,94,30.04,2.5,Calm,Calm,-,N/A,,Clear,0,2013-08-01 10:55:00
6:15 AM,65.7,64.0,94,30.05,2.0,Calm,Calm,-,N/A,,Clear,0,2013-08-01 11:15:00
6:35 AM,66.9,65.5,95,30.05,2.0,Calm,Calm,-,N/A,,Clear,0,2013-08-01 11:35:00
6:55 AM,68.9,67.1,94,30.05,2.5,Calm,Calm,-,N/A,,Clear,0,2013-08-01 11:55:00
7:15 AM,69.8,68.0,94,30.05,3.0,Calm,Calm,-,N/A,,Clear,0,2013-08-01 12:15:00
7:35 AM,70.7,68.7,93,30.05,4.0,NW,3.5,-,N/A,,Clear,320,2013-08-01 12:35:00
7:55 AM,72.1,68.9,89,30.06,7.0,NW,5.8,-,N/A,,Clear,310,2013-08-01 12:55:00
8:15 AM,73.2,68.7,86,30.06,10.0,WNW,4.6,-,N/A,,Clear,290,2013-08-01 13:15:00
8:35 AM,75.0,68.9,81,30.07,10.0,WNW,5.8,-,N/A,,Clear,290,2013-08-01 13:35:00
8:55 AM,76.1,69.1,79,30.08,10.0,NW,5.8,-,N/A,,Clear,310,2013-08-01 13:55:00
9:15 AM,77.5,69.8,77,30.08,10.0,WNW,4.6,-,N/A,,Clear,290,2013-08-01 14:15:00
9:35 AM,77.9,69.3,75,30.07,10.0,NNW,3.5,-,N/A,,Clear,330,2013-08-01 14:35:00
9:55 AM,79.0,69.3,72,30.07,10.0,NW,4.6,-,N/A,,Clear,310,2013-08-01 14:55:00
10:15 AM,79.3,69.3,71,30.08,10.0,NNW,3.5,-,N/A,,Clear,340,2013-08-01 15:15:00
10:35 AM,80.2,69.1,69,30.08,10.0,NNW,5.8,-,N/A,,Clear,340,2013-08-01 15:35:00
10:55 AM,81.7,69.1,65,30.08,10.0,NW,5.8,-,N/A,,Clear,320,2013-08-01 15:55:00
11:15 AM,81.1,66.7,61,30.08,10.0,North,4.6,-,N/A,,Clear,350,2013-08-01 16:15:00
11:35 AM,83.1,68.2,61,30.08,10.0,NW,4.6,-,N/A,,Clear,320,2013-08-01 16:35:00
11:55 AM,82.9,67.5,59,30.08,10.0,NNW,4.6,-,N/A,,Clear,330,2013-08-01 16:55:00
12:15 PM,82.8,67.5,60,30.08,10.0,Calm,Calm,-,N/A,,Clear,0,2013-08-01 17:15:00
12:35 PM,84.6,66.7,55,30.08,10.0,WNW,6.9,-,N/A,,Clear,290,2013-08-01 17:35:00
12:55 PM,84.6,66.4,54,30.07,10.0,NW,6.9,-,N/A,,Clear,320,2013-08-01 17:55:00
1:15 PM,84.4,65.5,53,30.07,10.0,NW,8.1,-,N/A,,Clear,320,2013-08-01 18:15:00
1:35 PM,84.7,63.5,49,30.06,10.0,WNW,6.9,-,N/A,,Clear,300,2013-08-01 18:35:00
1:55 PM,85.3,64.9,50,30.06,10.0,NNW,8.1,-,N/A,,Clear,330,2013-08-01 18:55:00
2:15 PM,85.8,63.1,46,30.05,10.0,WNW,6.9,-,N/A,,Clear,290,2013-08-01 19:15:00
2:35 PM,85.8,62.1,45,30.05,10.0,North,3.5,-,N/A,,Clear,350,2013-08-01 19:35:00
2:55 PM,85.6,61.7,44,30.05,10.0,WNW,6.9,-,N/A,,Clear,300,2013-08-01 19:55:00
3:15 PM,85.6,61.2,44,30.05,10.0,WNW,5.8,-,N/A,,Clear,300,2013-08-01 20:15:00
3:35 PM,85.6,61.9,45,30.04,10.0,NNW,5.8,-,N/A,,Clear,330,2013-08-01 20:35:00
3:55 PM,84.4,62.2,47,30.04,10.0,NNW,4.6,-,N/A,,Clear,340,2013-08-01 20:55:00
4:15 PM,86.4,61.7,43,30.04,10.0,North,6.9,-,N/A,,Clear,350,2013-08-01 21:15:00
4:35 PM,85.1,60.8,44,30.03,10.0,Calm,Calm,-,N/A,,Clear,0,2013-08-01 21:35:00
4:55 PM,85.5,60.1,42,30.03,10.0,North,4.6,-,N/A,,Clear,10,2013-08-01 21:55:00
5:15 PM,86.4,60.3,41,30.02,10.0,NW,5.8,-,N/A,,Clear,320,2013-08-01 22:15:00
5:35 PM,85.1,61.0,44,30.02,10.0,North,5.8,-,N/A,,Clear,350,2013-08-01 22:35:00
5:55 PM,85.3,60.8,44,30.01,10.0,Calm,Calm,-,N/A,,Clear,0,2013-08-01 22:55:00
6:15 PM,84.9,61.2,45,30.01,10.0,NNW,3.5,-,N/A,,Clear,330,2013-08-01 23:15:00
6:35 PM,84.2,62.1,47,30.00,10.0,NNW,3.5,-,N/A,,Clear,330,2013-08-01 23:35:00
6:55 PM,84.0,62.1,47,30.00,10.0,Calm,Calm,-,N/A,,Clear,0,2013-08-01 23:55:00
7:15 PM,82.2,65.7,57,30.01,10.0,Calm,Calm,-,N/A,,Clear,0,2013-08-02 00:15:00
7:35 PM,80.8,65.8,60,30.02,10.0,Calm,Calm,-,N/A,,Clear,0,2013-08-02 00:35:00
7:55 PM,76.5,68.9,77,30.02,10.0,Calm,Calm,-,N/A,,Clear,0,2013-08-02 00:55:00
8:15 PM,74.3,68.4,82,30.01,10.0,Calm,Calm,-,N/A,,Clear,0,2013-08-02 01:15:00
8:35 PM,72.7,69.1,88,30.01,10.0,Calm,Calm,-,N/A,,Clear,0,2013-08-02 01:35:00
8:55 PM,71.6,67.8,88,30.01,10.0,Calm,Calm,-,N/A,,Clear,0,2013-08-02 01:55:00
9:15 PM,70.5,67.5,90,30.02,10.0,Calm,Calm,-,N/A,,Clear,0,2013-08-02 02:15:00
9:35 PM,70.0,67.1,91,30.02,10.0,Calm,Calm,-,N/A,,Clear,0,2013-08-02 02:35:00
9:55 PM,69.4,66.6,91,30.01,10.0,Calm,Calm,-,N/A,,Clear,0,2013-08-02 02:55:00
10:15 PM,68.9,66.2,91,30.02,10.0,Calm,Calm,-,N/A,,Clear,0,2013-08-02 03:15:00
10:35 PM,68.5,66.2,92,30.02,10.0,Calm,Calm,-,N/A,,Clear,0,2013-08-02 03:35:00
10:55 PM,68.2,65.8,92,30.02,10.0,Calm,Calm,-,N/A,,Clear,0,2013-08-02 03:55:00
11:15 PM,67.3,64.9,92,30.02,10.0,Calm,Calm,-,N/A,,Clear,0,2013-08-02 04:15:00
11:35 PM,67.1,64.8,92,30.02,10.0,Calm,Calm,-,N/A,,Clear,0,2013-08-02 04:35:00
11:55 PM,67.1,64.9,93,30.00,10.0,Calm,Calm,-,N/A,,Clear,0,2013-08-02 04:55:00